Weather History for EGQL - July, 2013

Change the Weather History Date:

Tuesday, July 30, 2013

  Actual Average Record
Temperature  
Mean Temperature 60 °F -  
Max Temperature 69 °F 63 °F 73 °F (2006)
Min Temperature 51 °F 50 °F 46 °F (2007)
Degree Days  
Heating Degree Days 5    
Growing Degree Days 10 (Base 50)    
Moisture  
Dew Point 52 °F    
Average Humidity 76    
Maximum Humidity 94    
Minimum Humidity 46    
Precipitation  
Precipitation 0.01 in - - ()
Sea Level Pressure  
Sea Level Pressure 29.73 in    
Wind  
Wind Speed 10 mph ()    
Max Wind Speed 17 mph    
Max Gust Speed -    
Visibility 6.9 miles    
Events Rain    
Averages and records for this station are not official NWS values.
T = Trace of Precipitation, MM = Missing Value Source: Averaged Metar Reports

Daily Weather History Graph

Daily Weather History Graph

Search for Another Location

Airport or City:

Trip Planner

Search our weather history database for the weather conditions in past years. The results will help you decide how hot, cold, wet, or windy it might be!

Date:

Astronomy

Jul. 30, 2013 Rise Set
Actual Time 5:09 AM BST 9:24 PM BST
Civil Twilight 4:19 AM BST 10:14 PM BST
Nautical Twilight 3:01 AM BST 11:30 PM BST
Astronomical Twilight 1:50 AM BST 12:45 AM BST
Moon No Moon Rise 3:23 PM BST (7/30)
Length of Visible Light 17h 54m
Length of Day
16h 14m
Last Quarter, 43% of the Moon is Illuminated
Jul 30
Last Quarter
Aug 6
New
Aug 14
First Quarter
Aug 21
Full
Aug 28
Last Quarter

Hourly Weather History & Observations

Time (BST) Temp. Dew Point Humidity Pressure Visibility Wind Dir Wind Speed Gust Speed Precip Events Conditions
12:50 AM 57 °F 54 °F 88% 29.72 in 28 mi West 9.2 mph - -   Partly Cloudy
12:50 AM 57.2 °F 55.4 °F 94% 29.71 in 6.2 mi West 9.2 mph - N/A   Mostly Cloudy
1:50 AM 55.4 °F 53.6 °F 94% 29.71 in 6.2 mi West 8.1 mph - N/A   Mostly Cloudy
2:50 AM 57.2 °F 53.6 °F 88% 29.71 in 6.2 mi West 12.7 mph - N/A   Mostly Cloudy
3:50 AM 55 °F 52 °F 87% 29.73 in 31 mi WSW 13.8 mph - -   Scattered Clouds
3:50 AM 55.4 °F 51.8 °F 88% 29.71 in 6.2 mi WSW 13.8 mph - N/A   Partly Cloudy
4:50 AM 53.6 °F 50.0 °F 88% 29.71 in 6.2 mi West 9.2 mph - N/A   Partly Cloudy
5:50 AM 51.8 °F 50.0 °F 94% 29.71 in 6.2 mi West 5.8 mph - N/A   Partly Cloudy
6:50 AM 55 °F 51 °F 82% 29.74 in 28 mi WSW 11.5 mph - -   Scattered Clouds
6:50 AM 55.4 °F 51.8 °F 88% 29.71 in 6.2 mi WSW 11.5 mph - N/A   Partly Cloudy
7:50 AM 57.2 °F 51.8 °F 82% 29.74 in 6.2 mi West 10.4 mph - N/A   Partly Cloudy
8:50 AM 62.6 °F 51.8 °F 68% 29.74 in 6.2 mi West 12.7 mph - N/A   Partly Cloudy
9:50 AM 62 °F 51 °F 59% 29.75 in 31 mi West 15.0 mph - -   Scattered Clouds
9:50 AM 62.6 °F 51.8 °F 68% 29.74 in 6.2 mi West 15.0 mph - N/A   Partly Cloudy
10:50 AM 64.4 °F 51.8 °F 64% 29.74 in 6.2 mi WSW 13.8 mph - N/A   Mostly Cloudy
11:50 AM 66.2 °F 50.0 °F 56% 29.74 in 6.2 mi West 17.3 mph - N/A Rain Light Rain Showers
12:50 PM 65 °F 49 °F 47% 29.73 in 12 mi West 13.8 mph - - Rain Light Rain Showers
12:50 PM 64.4 °F 50.0 °F 59% 29.71 in 6.2 mi West 13.8 mph - N/A   Scattered Clouds
1:50 PM 66.2 °F 50.0 °F 56% 29.71 in 6.2 mi WSW 12.7 mph - N/A   Scattered Clouds
2:50 PM 69.8 °F 48.2 °F 46% 29.71 in 6.2 mi West 17.3 mph - N/A   Scattered Clouds
3:50 PM 67 °F 51 °F 46% 29.73 in 25 mi West 16.1 mph - -   Partly Cloudy
3:50 PM 66.2 °F 51.8 °F 60% 29.71 in 6.2 mi West 16.1 mph - N/A   Mostly Cloudy
4:50 PM 66.2 °F 53.6 °F 64% 29.71 in 6.2 mi SSE 5.8 mph - N/A   Mostly Cloudy
5:50 PM 60.8 °F 57.2 °F 88% 29.71 in 6.2 mi East 8.1 mph - N/A   Scattered Clouds
6:50 PM 62.6 °F 55.4 °F 77% 29.71 in 6.2 mi SE 4.6 mph - N/A   Mostly Cloudy
7:50 PM 59.0 °F 51.8 °F 77% 29.74 in 6.2 mi WSW 17.3 mph - N/A Rain Light Rain Showers
8:50 PM 57.2 °F 53.6 °F 88% 29.74 in 6.2 mi WSW 10.4 mph - N/A   Mostly Cloudy
9:50 PM 57 °F 54 °F 87% 29.76 in 19 mi West 9.2 mph - -   Partly Cloudy
9:50 PM 57.2 °F 53.6 °F 88% 29.74 in 6.2 mi West 9.2 mph - N/A   Mostly Cloudy
10:50 PM 55.4 °F 53.6 °F 94% 29.74 in 6.2 mi West 5.8 mph - N/A   Scattered Clouds
11:50 PM 55.4 °F 51.8 °F 88% 29.77 in 6.2 mi WNW 4.6 mph - N/A   Partly Cloudy